Location: Krasnoyarskiy Pitomnik
(51.1333°N, 71.6167°E)
Time: 10:27:04
(UTC+00:00)

COSMOS 2428 - Pass Details

Date: 22 October 2021
Orbit: 844 x 858 km, 70.9° (Epoch: 07 December)

Event Time Altitude Azimuth Distance (km) Brightness Sun altitude
Exits shadow 23:33:16 - 332° (NNW) 3,228 5.5 -22.1°
Reaches altitude 10° 23:35:20 10° 339° (NNW) 2,486 5.0 -21.8°
Maximum altitude 23:40:44 42° 49° (NE) 1,211 3.9 -20.9°
Drops below altitude 10° 23:46:07 10° 120° (ESE) 2,482 5.9 -20.1°
Sets 23:48:43 0° 127° (SE) 3,416 6.6 -19.7°
